sat.trackr.live / text

‹ back to catalog

STARLINK-2334

NORAD 47792 · 2021-018F

PAYLOAD ACTIVE UNKNOWN

§ Identity

Operator
Country
US
Launch date
2021-03-11
Launch site
AFETR
Launch vehicle
Mass (kg)
RCS (m²)

Purposes: comms

External: N2YO · Heavens-Above · Gunter

§ Orbital elements

Epoch: 2026-09-09T21:40:08.069952Z

Period
94.01 min
Inclination
53.1596°
Eccentricity
0.0001259
Mean motion
15.31723904 rev/d
Perigee alt
469.8 km
Apogee alt
471.5 km
Semi-major
6,848.8 km
B*
-1.7506e-6
RAAN
101.8690°
Arg perigee
76.7595°
Mean anomaly
283.3547°
Rev number
30,499

§ Raw data

STARLINK-23341 47792U 21018F   26252.90287118 -.00000420  00000+0 -17506-5 0  99952 47792  53.1596 101.8690 0001259  76.7595 283.3547 15.31723904304993

JSON: /api/v1/satellites/47792 · /tle

For live sub-satellite position, see the globe view (requires WebGL).

§ Visibility from observer

Set your observer location to see the next 7 days of passes ≥ 10°. The values pass through the URL so the page stays shareable.

No JS? Fill the form by hand. The geolocation button needs JavaScript.